EW4443 Weather Reports


time (UTC)temp
C
wind
direction
speed
KPH
gust
KPH
rain 1hr
cm
rain 24hr
cm
rain mn
cm
humidity
%
barometer
mb
20260901124550 25 68 0.0 0.0 0.00 0.33 0.00 73 1012.8
20260901124050 25 68 0.0 0.0 0.00 0.33 0.00 73 1012.8
20260901123550 25 158 0.0 0.0 0.00 0.33 0.00 74 1012.8
20260901123322 25 113 0.0 0.0 0.00 0.33 0.00 74 1012.8
20260901122550 25 113 0.0 0.0 0.00 0.33 0.00 73 1012.8
20260901122049 25 113 0.0 0.0 0.00 0.33 0.00 74 1012.8
20260901121549 25 113 0.0 0.0 0.00 0.33 0.00 73 1012.5
20260901121049 25 158 0.0 0.0 0.00 0.33 0.00 73 1012.5
20260901120549 25 113 0.0 0.0 0.00 0.33 0.00 71 1012.5
20260901120056 25 23 0.0 0.0 0.00 0.33 0.00 73 1012.1
20260901120052 25 135 0.0 0.0 0.00 0.33 0.00 73 1012.5
20260901115322 25 23 0.0 0.0 0.00 0.33 0.00 71 1012.5
20260901114550 25 180 0.0 0.0 0.00 0.33 0.00 71 1012.5
20260901114050 25 158 0.0 0.0 0.00 0.33 0.00 71 1012.5
20260901113549 25 248 0.0 0.0 0.00 0.33 0.00 71 1012.1
20260901113049 25 158 0.0 0.0 0.00 0.33 0.00 71 1012.1
20260901112549 25 158 0.0 0.0 0.00 0.33 0.00 70 1012.5
20260901112049 25 158 0.0 0.0 0.00 0.33 0.00 70 1012.1
20260901111550 25 158 0.0 4.8 0.00 0.33 0.00 70 1012.1
20260901111050 25 23 0.0 4.8 0.00 0.33 0.00 70 1012.1
20260901110551 25 68 0.0 0.0 0.00 0.33 0.00 70 1012.1
20260901110050 25 45 0.0 0.0 0.00 0.33 0.00 70 1012.1
20260901105820 25 68 0.0 0.0 0.00 0.33 0.00 70 1012.1
20260901105049 25 68 0.0 0.0 0.00 0.33 0.00 70 1012.1
20260901104549 25 68 0.0 0.0 0.00 0.33 0.00 70 1012.1
20260901104049 25 45 0.0 0.0 0.00 0.33 0.00 70 1012.1
20260901103549 25 225 0.0 0.0 0.00 0.33 0.00 70 1012.1
20260901103049 25 23 0.0 0.0 0.00 0.33 0.00 70 1012.5
20260901102550 25 45 0.0 0.0 0.00 0.33 0.00 70 1012.5
20260901102050 25 23 0.0 0.0 0.00 0.33 0.00 70 1012.5
20260901101551 25 23 0.0 0.0 0.00 0.33 0.00 70 1012.5
20260901101050 25 23 0.0 0.0 0.00 0.33 0.00 70 1012.5
20260901100550 25 23 0.0 0.0 0.00 0.33 0.00 70 1012.1
20260901100048 25 68 0.0 0.0 0.00 0.33 0.00 70 1012.1
20260901095549 25 270 0.0 0.0 0.00 0.33 0.00 70 1012.5
20260901095049 25 203 0.0 0.0 0.00 0.33 0.00 70 1012.1
20260901094548 25 45 0.0 0.0 0.00 0.33 0.00 70 1012.5
20260901094050 25 113 0.0 0.0 0.00 0.33 0.00 70 1012.5
20260901093822 25 23 0.0 0.0 0.00 0.33 0.00 69 1012.5
20260901093321 25 180 0.0 0.0 0.00 0.33 0.00 69 1012.1
20260901092550 25 23 0.0 0.0 0.00 0.33 0.00 69 1012.5
20260901092051 25 158 0.0 0.0 0.00 0.33 0.00 69 1012.5
20260901091549 26 158 0.0 0.0 0.00 0.33 0.00 70 1012.5
20260901091320 26 158 0.0 0.0 0.00 0.33 0.00 70 1012.5
20260901090549 26 158 0.0 0.0 0.00 0.33 0.00 69 1012.8
20260901090048 26 158 0.0 0.0 0.00 0.33 0.00 69 1012.5
20260901085550 26 158 0.0 0.0 0.00 0.33 0.00 69 1012.5
20260901085051 26 135 0.0 0.0 0.00 0.33 0.00 69 1012.5
20260901084550 26 135 0.0 0.0 0.00 0.33 0.00 68 1012.5
20260901084050 26 158 0.0 0.0 0.00 0.33 0.00 66 1012.5
20260901083550 26 135 0.0 0.0 0.00 0.33 0.00 66 1012.5
20260901083320 26 158 0.0 0.0 0.00 0.33 0.00 66 1012.5
20260901082548 26 180 0.0 0.0 0.00 0.33 0.00 66 1012.8
20260901082049 26 135 0.0 0.0 0.00 0.33 0.00 68 1012.5
20260901081820 26 225 0.0 0.0 0.00 0.33 0.00 66 1012.5
20260901081049 26 203 0.0 0.0 0.00 0.33 0.00 66 1012.5
20260901080550 26 203 0.0 0.0 0.00 0.33 0.00 66 1012.5
20260901080050 26 180 0.0 0.0 0.00 0.33 0.00 65 1012.5
20260901075826 26 180 0.0 1.6 0.00 0.33 0.00 65 1012.5
20260901075050 26 180 0.0 1.6 0.00 0.33 0.00 65 1012.5
20260901074549 26 203 0.0 0.0 0.00 0.33 0.00 65 1012.1
20260901074049 26 203 0.0 3.2 0.00 0.33 0.00 65 1012.1
20260901073549 26 180 0.0 4.8 0.00 0.33 0.00 65 1012.5
20260901073048 26 180 0.0 4.8 0.00 0.33 0.00 65 1012.1
20260901072548 26 293 0.0 3.2 0.00 0.33 0.00 65 1012.5
20260901072049 26 158 0.0 3.2 0.00 0.33 0.00 65 1012.5
20260901071550 26 90 0.0 3.2 0.00 0.33 0.00 65 1012.5
20260901071050 26 270 0.0 0.0 0.00 0.33 0.00 65 1012.1
20260901070550 26 135 0.0 0.0 0.00 0.33 0.00 65 1012.1
20260901070050 26 90 0.0 0.0 0.00 0.33 0.00 65 1012.1
20260901065550 26 315 0.0 3.2 0.00 0.33 0.33 65 1012.1
20260901065320 26 0 0.0 3.2 0.00 0.33 0.33 65 1012.1
20260901064819 26 338 0.0 1.6 0.00 0.33 0.33 63 1012.1
20260901064048 26 23 0.0 1.6 0.00 0.33 0.33 63 1011.8
20260901063821 26 0 0.0 1.6 0.00 0.33 0.33 63 1011.8
20260901063033 27 338 0.0 3.2 0.00 0.33 0.33 63 1011.8
20260901062536 27 338 0.0 1.6 0.00 0.33 0.33 63 1012.1
20260901062531 27 0 0.0 1.6 0.00 0.33 0.33 63 1012.1
20260901061531 27 293 0.0 1.6 0.00 0.33 0.33 63 1012.1
20260901061030 27 23 0.0 0.0 0.00 0.33 0.33 61 1011.8
20260901060529 27 23 0.0 0.0 0.00 0.33 0.33 61 1012.1
20260901060031 27 0 0.0 0.0 0.00 0.33 0.33 61 1012.1
20260901055800 27 293 0.0 1.6 0.00 0.33 0.33 61 1012.1
20260901055031 27 0 0.0 1.6 0.00 0.33 0.33 60 1011.8
20260901054802 27 225 0.0 3.2 0.00 0.33 0.33 59 1011.8
20260901054302 27 315 0.0 3.2 0.00 0.33 0.33 59 1011.8
20260901053531 27 203 0.0 3.2 0.00 0.33 0.33 58 1012.1
20260901053031 27 270 0.0 3.2 0.00 0.33 0.33 58 1012.1
20260901052530 27 225 0.0 0.0 0.00 0.33 0.33 59 1012.1
20260901052030 27 225 0.0 0.0 0.00 0.33 0.33 59 1011.8
20260901051529 27 180 0.0 3.2 0.00 0.33 0.33 58 1012.1
20260901051030 27 270 0.0 3.2 0.00 0.36 0.33 56 1012.1
20260901050530 27 225 0.0 1.6 0.00 0.36 0.33 58 1011.8
20260901050032 27 248 0.0 0.0 0.00 0.36 0.33 58 1012.1
20260901045802 27 225 0.0 0.0 0.00 0.36 0.33 56 1011.8
20260901045031 27 248 0.0 0.0 0.00 0.36 0.33 56 1012.1
20260901044803 27 248 0.0 0.0 0.00 0.36 0.33 55 1012.1
20260901044031 27 248 0.0 0.0 0.00 0.36 0.33 55 1012.1
20260901043529 27 225 0.0 0.0 0.00 0.36 0.33 55 1011.8
20260901043030 27 180 0.0 0.0 0.00 0.36 0.33 55 1011.8
20260901042530 27 158 0.0 6.4 0.00 0.36 0.33 55 1012.1
20260901042030 28 180 1.6 6.4 0.00 0.36 0.33 55 1012.1
20260901041531 28 180 0.0 6.4 0.00 0.38 0.33 54 1011.8
20260901041303 28 180 0.0 9.7 0.00 0.41 0.33 53 1011.8
20260901040531 28 180 1.6 9.7 0.00 0.64 0.33 53 1011.8
20260901040031 28 158 0.0 4.8 0.00 0.79 0.33 51 1011.8
20260901035531 28 45 0.0 1.6 0.00 0.79 0.33 53 1011.8
20260901035030 28 315 0.0 1.6 0.00 0.79 0.33 51 1011.8
20260901034530 28 113 0.0 3.2 0.00 0.79 0.33 50 1011.8
20260901034300 28 135 0.0 6.4 0.00 0.79 0.33 53 1011.8
20260901033530 28 113 0.0 6.4 0.00 0.79 0.33 53 1011.5
20260901033030 28 180 0.0 6.4 0.00 0.79 0.33 53 1011.8
20260901032531 28 90 1.6 6.4 0.00 0.79 0.33 53 1011.5
20260901032031 28 338 1.6 8.0 0.00 0.79 0.33 53 1011.5
20260901031531 28 180 1.6 9.7 0.00 0.79 0.33 54 1011.1
20260901031031 28 68 1.6 11.3 0.00 0.79 0.33 54 1011.1
20260901030530 28 203 1.6 11.3 0.00 0.79 0.33 53 1011.1
20260901030301 28 158 0.0 4.8 0.00 0.79 0.33 51 1011.1
20260901025800 28 180 0.0 4.8 0.00 0.79 0.33 50 1011.1
20260901025030 28 158 0.0 4.8 0.00 0.79 0.33 51 1010.8
20260901024531 28 158 0.0 4.8 0.00 0.79 0.33 51 1010.8
20260901024302 28 180 0.0 0.0 0.00 0.79 0.33 55 1010.8
20260901023531 28 180 0.0 0.0 0.00 0.79 0.33 54 1010.8
20260901023031 28 180 0.0 0.0 0.00 0.79 0.33 51 1010.5
20260901022531 28 180 0.0 0.0 0.00 0.79 0.33 56 1010.8
20260901022031 28 23 0.0 0.0 0.00 0.79 0.33 56 1010.8
20260901021529 28 45 0.0 0.0 0.00 0.79 0.33 56 1010.8
20260901021305 28 45 0.0 0.0 0.00 0.79 0.33 54 1010.5
20260901021030 28 45 0.0 0.0 0.00 0.79 0.33 55 1010.5
20260901020030 29 45 0.0 0.0 0.00 0.79 0.33 51 1010.0
20260901015531 29 45 0.0 0.0 0.00 0.79 0.33 51 1010.0
20260901015031 29 68 0.0 0.0 0.00 0.79 0.33 55 1010.0
20260901014531 29 45 0.0 0.0 0.00 0.79 0.33 53 1010.0
20260901014302 29 45 0.0 0.0 0.00 0.79 0.33 53 1010.0
20260901013531 29 45 0.0 0.0 0.00 0.79 0.33 51 1010.0
20260901013029 29 23 0.0 1.6 0.00 0.79 0.33 50 1010.5
20260901012800 30 45 0.0 1.6 0.00 0.79 0.33 50 1010.0
20260901012300 30 45 0.0 0.0 0.00 0.79 0.33 51 1010.0
20260901011530 30 23 0.0 0.0 0.00 0.79 0.33 51 1010.5
20260901011031 30 23 0.0 8.0 0.00 0.79 0.33 50 1010.5
20260901010531 30 23 1.6 8.0 0.00 0.79 0.33 50 1010.5
20260901010033 30 45 0.0 6.4 0.00 0.79 0.33 50 1010.0
20260901005531 30 68 1.6 6.4 0.00 0.79 0.33 50 1010.5
20260901005032 30 203 0.0 4.8 0.00 0.79 0.33 48 1010.0
20260901004530 30 158 0.0 4.8 0.00 0.79 0.33 48 1010.5
20260901004029 30 225 0.0 4.8 0.00 0.79 0.33 49 1010.5
20260901003530 30 203 0.0 4.8 0.00 0.79 0.33 49 1010.5
20260901003030 30 270 0.0 3.2 0.00 0.79 0.33 46 1010.5
20260901002801 30 248 0.0 3.2 0.00 0.79 0.33 49 1010.5
20260901002030 30 270 0.0 3.2 0.00 0.79 0.33 49 1010.5
20260901001531 30 203 0.0 3.2 0.00 0.79 0.33 48 1010.5
20260901001031 30 45 0.0 4.8 0.00 0.79 0.33 50 1010.5
20260901000531 30 270 0.0 4.8 0.00 0.79 0.33 46 1010.5
20260901000030 30 203 0.0 6.4 0.00 0.79 0.33 46 1010.8
20260831235529 30 315 1.6 6.4 0.00 0.79 0.33 46 1010.8
20260831235030 30 180 0.0 8.0 0.00 0.79 0.33 46 1010.8
20260831234529 30 113 1.6 8.0 0.00 0.79 0.33 46 1010.8
20260831234030 30 180 1.6 6.4 0.00 0.79 0.33 46 1010.8
20260831233801 30 225 1.6 4.8 0.00 0.79 0.33 45 1010.8
20260831233030 30 248 0.0 8.0 0.00 0.79 0.33 45 1010.8
20260831232532 30 180 1.6 8.0 0.00 0.79 0.33 45 1010.8
20260831232031 30 180 0.0 8.0 0.00 0.79 0.33 50 1010.8
20260831231530 30 180 1.6 11.3 0.00 0.79 0.33 48 1010.8
20260831231300 30 158 1.6 11.3 0.00 0.79 0.33 49 1010.8
20260831230529 30 270 1.6 8.0 0.00 0.79 0.33 50 1011.1
20260831230029 30 203 1.6 8.0 0.00 0.79 0.33 49 1011.1
20260831225529 30 270 0.0 9.7 0.00 0.79 0.33 50 1011.1
20260831225030 30 225 1.6 9.7 0.00 0.79 0.33 50 1011.1
20260831224530 30 0 1.6 6.4 0.00 0.79 0.33 48 1011.1
20260831224030 30 203 1.6 8.0 0.00 0.79 0.33 48 1011.5
20260831223530 30 180 1.6 8.0 0.00 0.79 0.33 48 1011.5
20260831223010 30 45 1.6 9.7 0.00 0.79 0.33 49 1011.1
20260831222511 30 248 1.6 9.7 0.00 0.79 0.33 46 1011.5
20260831222010 31 158 1.6 9.7 0.00 0.79 0.33 51 1011.8
20260831221510 30 270 1.6 8.0 0.00 0.79 0.33 48 1012.1
20260831221010 30 225 1.6 8.0 0.00 0.79 0.33 51 1011.8
20260831220511 31 0 0.0 8.0 0.00 0.79 0.33 50 1012.1
20260831220242 30 23 1.6 8.0 0.00 0.79 0.33 54 1012.1
20260831215511 30 225 1.6 11.3 0.00 0.79 0.33 54 1012.5
20260831215011 30 158 1.6 11.3 0.00 0.79 0.33 53 1012.8
20260831214511 30 225 1.6 9.7 0.00 0.79 0.33 53 1012.8
20260831214011 30 0 1.6 9.7 0.00 0.79 0.33 55 1013.3
20260831213510 30 113 1.6 9.7 0.00 0.79 0.33 55 1013.3
20260831213010 29 180 1.6 11.3 0.00 0.79 0.33 56 1013.3
20260831212510 29 135 1.6 14.5 0.00 0.79 0.33 55 1013.3
20260831212242 29 203 3.2 14.5 0.00 0.79 0.33 55 1013.6
20260831211511 28 180 1.6 9.7 0.00 0.79 0.33 58 1013.6
20260831211011 28 68 1.6 9.7 0.00 0.79 0.33 56 1013.9
20260831210511 28 225 1.6 11.3 0.00 0.79 0.33 58 1013.9
20260831210010 28 203 1.6 11.3 0.00 0.79 0.33 58 1013.9
20260831205514 28 158 1.6 9.7 0.00 0.79 0.33 59 1014.3
20260831205510 28 203 1.6 6.4 0.00 0.79 0.33 55 1013.9
20260831204510 28 225 1.6 9.7 0.00 0.79 0.33 60 1014.3
20260831204009 28 225 1.6 8.0 0.00 0.79 0.33 61 1014.3
20260831203511 27 158 1.6 16.1 0.00 0.79 0.33 63 1014.3
20260831203010 27 135 3.2 16.1 0.00 0.79 0.33 63 1014.6
20260831202510 27 225 1.6 14.5 0.00 0.79 0.33 63 1014.3
20260831202010 27 270 1.6 6.4 0.00 0.79 0.33 63 1014.3
20260831201510 26 225 1.6 9.7 0.00 0.79 0.33 65 1014.6
20260831201009 26 203 1.6 11.3 0.00 0.79 0.33 65 1014.3
20260831200509 26 158 3.2 11.3 0.00 0.79 0.33 68 1014.3
20260831200009 26 203 3.2 14.5 0.00 0.79 0.33 69 1014.3
20260831195509 26 180 3.2 16.1 0.00 0.79 0.33 68 1014.6
20260831195010 26 180 1.6 16.1 0.00 0.79 0.33 73 1014.6
20260831194510 25 225 1.6 8.0 0.00 0.79 0.33 73 1015.0
20260831194010 25 0 1.6 9.7 0.00 0.79 0.33 73 1014.6
20260831193510 25 180 1.6 9.7 0.00 0.79 0.33 74 1014.6
20260831193242 25 90 1.6 6.4 0.00 0.79 0.33 73 1015.0
20260831192509 25 315 1.6 8.0 0.00 0.79 0.33 74 1014.6
20260831192009 25 293 1.6 9.7 0.00 0.79 0.33 73 1014.6
20260831191511 25 225 1.6 9.7 0.00 0.79 0.33 75 1015.0
20260831191240 25 225 1.6 9.7 0.00 0.79 0.33 75 1015.0
20260831190509 25 158 1.6 9.7 0.00 0.79 0.33 76 1015.0
20260831190010 25 158 1.6 11.3 0.00 0.79 0.33 80 1015.0
20260831185510 24 270 1.6 12.9 0.00 0.79 0.33 79 1014.6
20260831185010 24 45 1.6 16.1 0.00 0.79 0.33 79 1015.0
20260831184510 24 180 1.6 16.1 0.00 0.79 0.33 78 1015.0
20260831184008 24 90 1.6 8.0 0.00 0.79 0.33 79 1015.0
20260831183509 24 158 1.6 8.0 0.00 0.79 0.33 79 1014.6
20260831183010 24 180 1.6 14.5 0.00 0.79 0.33 80 1014.6
20260831182508 24 180 1.6 14.5 0.00 0.79 0.33 81 1014.6
20260831182009 24 158 1.6 12.9 0.00 0.79 0.33 83 1015.0
20260831181510 24 203 1.6 9.7 0.00 0.79 0.33 85 1015.0
20260831181242 24 248 1.6 8.0 0.00 0.79 0.33 86 1015.0
20260831180510 24 180 1.6 8.0 0.00 0.79 0.33 86 1015.0
20260831180009 24 158 1.6 6.4 0.00 0.79 0.33 86 1015.0
20260831175513 23 203 0.0 4.8 0.00 0.79 0.33 86 1015.0
20260831175508 24 248 0.0 3.2 0.00 0.79 0.33 86 1015.0
20260831174508 23 0 1.6 6.4 0.00 0.79 0.33 86 1015.3
20260831174008 23 203 1.6 6.4 0.00 0.79 0.33 88 1015.6
20260831173509 23 338 0.0 4.8 0.00 0.79 0.33 88 1015.3
20260831173242 23 45 0.0 4.8 0.00 0.79 0.33 88 1015.3
20260831172509 23 315 0.0 3.2 0.00 0.79 0.33 88 1015.6
20260831172009 23 45 0.0 3.2 0.00 0.79 0.33 88 1015.6
20260831171509 23 270 0.0 3.2 0.03 0.79 0.33 88 1015.3
20260831171009 23 23 0.0 3.2 0.05 0.79 0.33 88 1015.3
20260831170508 23 270 0.0 6.4 0.08 0.79 0.33 88 1015.3
20260831170008 23 293 0.0 6.4 0.10 0.79 0.33 88 1015.3
20260831165508 23 23 0.0 4.8 0.13 0.79 0.33 88 1015.3
20260831165008 23 203 1.6 6.4 0.13 0.79 0.33 88 1015.3
20260831164509 23 45 1.6 8.0 0.13 0.79 0.33 88 1015.0
20260831164009 23 45 1.6 8.0 0.15 0.79 0.33 88 1015.3
20260831163509 23 68 1.6 8.0 0.15 0.79 0.33 88 1015.0
20260831163009 23 135 1.6 8.0 0.18 0.79 0.33 88 1015.3
20260831162509 23 45 1.6 9.7 0.20 0.79 0.33 88 1015.0
20260831162008 23 45 1.6 9.7 0.23 0.79 0.33 88 1015.3
20260831161508 23 23 1.6 8.0 0.23 0.76 0.30 88 1015.0
20260831161008 23 135 1.6 11.3 0.20 0.74 0.28 86 1014.6
20260831160509 23 68 3.2 11.3 0.18 0.71 0.25 86 1014.6
20260831160009 23 90 3.2 11.3 0.15 0.69 0.23 86 1014.6
20260831155510 23 68 3.2 11.3 0.13 0.66 0.20 86 1014.6
20260831155009 23 90 3.2 11.3 0.13 0.66 0.20 86 1014.6
20260831154509 23 45 3.2 11.3 0.15 0.66 0.20 86 1015.0
20260831154009 23 45 1.6 8.0 0.13 0.64 0.18 86 1015.0
20260831153449 23 45 1.6 6.4 0.15 0.64 0.18 86 1015.0
20260831152949 23 45 0.0 0.0 0.15 0.61 0.15 85 1015.3
20260831152720 23 0 0.0 0.0 0.13 0.58 0.13 85 1015.3
20260831151949 23 45 0.0 4.8 0.10 0.56 0.10 85 1015.0
20260831151449 23 135 0.0 6.4 0.08 0.53 0.08 83 1015.0
20260831150950 23 45 0.0 9.7 0.08 0.53 0.08 83 1015.0
20260831150451 23 45 1.6 11.3 0.08 0.53 0.08 83 1014.6
20260831145950 23 270 1.6 11.3 0.08 0.53 0.08 83 1015.0
20260831145454 23 225 1.6 6.4 0.08 0.53 0.08 81 1015.0
20260831145450 23 158 1.6 6.4 0.08 0.53 0.08 83 1014.6
20260831144719 23 180 1.6 8.0 0.05 0.51 0.05 81 1014.6
20260831143949 24 180 1.6 8.0 0.05 0.51 0.05 80 1014.6
20260831143449 25 225 1.6 11.3 0.03 0.48 0.03 78 1014.6
20260831142950 25 203 1.6 11.3 0.00 0.46 0.00 75 1014.6
20260831142721 26 180 3.2 9.7 0.00 0.46 0.00 71 1014.6
20260831141950 26 225 1.6 9.7 0.00 0.46 0.00 70 1014.3
20260831141450 26 270 1.6 11.3 0.00 0.46 0.00 70 1013.9
20260831140950 26 270 1.6 11.3 0.00 0.46 0.00 70 1013.6
20260831140449 26 203 1.6 9.7 0.00 0.46 0.00 70 1013.9
20260831140220 26 225 1.6 9.7 0.00 0.46 0.00 70 1013.3
20260831135720 26 293 1.6 9.7 0.00 0.46 0.00 70 1013.3
20260831134949 26 270 1.6 8.0 0.00 0.46 0.00 69 1013.3
20260831134449 26 315 1.6 8.0 0.00 0.46 0.00 68 1012.8
20260831133952 26 248 1.6 9.7 0.00 0.46 0.00 66 1012.8
20260831133450 26 158 1.6 9.7 0.00 0.46 0.00 65 1012.5
20260831132950 26 180 1.6 16.1 0.00 0.46 0.00 65 1012.8
20260831132449 26 180 3.2 16.1 0.00 0.46 0.00 63 1012.5
20260831131950 26 293 1.6 8.0 0.00 0.46 0.00 63 1012.5
20260831131448 26 180 1.6 8.0 0.00 0.46 0.00 63 1012.1
20260831130949 26 225 1.6 8.0 0.00 0.46 0.00 63 1012.1
20260831130452 26 180 0.0 6.4 0.00 0.46 0.00 63 1012.1
20260831130448 26 203 0.0 6.4 0.00 0.46 0.00 63 1012.1
20260831125450 26 248 1.6 8.0 0.00 0.46 0.00 65 1012.1